{"data":{"norad_id":69849,"intl_designator":"2026-155B","name":"QIANFAN-220","alt_names":[],"object_type":"PAYLOAD","status":"ACTIVE","operator":null,"country":"PRC","launch_date":"2026-07-05","launch_site_code":"WSC","launch_vehicle":null,"mission":null,"orbit_class":"UNKNOWN","rcs_meters":null,"size_class":null,"mass_kg":null,"dimensions":null,"purposes":[],"wikipedia_slug":null,"has_3d_model":false,"image_url":null,"decayed_at":null,"tle_current":{"epoch":"2026-09-19T19:28:41.900448Z","epoch_age_seconds":81147,"freshness":"FRESH","line1":"1 69849U 26155B   26262.81159607 -.01920665  00000+0 -32185+1 0  9999","line2":"2 69849  89.0089  53.7964 0035820  13.6977 346.5138 13.50317053 10635","mean_motion":13.50317053,"eccentricity":0.003582,"inclination_deg":89.0089,"raan_deg":53.7964,"arg_perigee_deg":13.6977,"mean_anomaly_deg":346.5138,"bstar":-3.2185,"rev_number":1063,"period_min":106.6416214474,"perigee_km":1044.409108547,"apogee_km":1097.7753868776,"semimajor_km":7449.2292477123,"source":"CELESTRAK","updated_at":"2026-09-20T09:00:25.133690Z"}}}